N1ICS-1 Weather Reports


time (UTC)temp
F
wind
direction
speed
knots
gust
knots
rain 1hr
in
rain 24hr
in
rain mn
in
humidity
%
barometer
mb
20260508220502 54 224 8.7 14.8 0.09 0.13 0.13 97 1011.0
20260508220002 55 235 7.8 12.2 0.07 0.13 0.13 97 1011.2
20260508215502 55 237 9.6 12.2 0.04 0.12 0.12 97 1011.1
20260508215002 55 240 7.8 11.3 0.04 0.11 0.11 98 1011.1
20260508214502 55 227 8.7 10.4 0.04 0.11 0.11 98 1011.2
20260508214002 55 231 9.6 14.8 0.04 0.11 0.11 97 1011.2
20260508213501 55 245 10.4 15.6 0.04 0.10 0.10 97 1011.2
20260508213002 55 247 8.7 11.3 0.07 0.10 0.10 97 1011.2
20260508212502 55 245 9.6 13.9 0.07 0.09 0.09 96 1011.1
20260508212001 55 244 7.8 14.8 0.04 0.09 0.09 96 1011.2
20260508211502 56 246 6.1 13.9 0.02 0.08 0.08 95 1011.3
20260508211001 56 242 13.0 21.7 0.04 0.08 0.08 94 1011.4
20260508210502 56 238 13.0 16.5 0.02 0.07 0.07 94 1011.3
20260508210002 56 245 17.4 18.2 0.00 0.07 0.07 93 1011.3
20260508205502 56 245 10.4 15.6 0.02 0.07 0.07 94 1011.2
20260508205002 56 237 11.3 16.5 0.02 0.07 0.07 93 1011.1
20260508204502 56 242 10.4 20.9 0.00 0.07 0.07 92 1011.1
20260508204001 56 249 8.7 19.1 0.02 0.07 0.07 90 1011.2
20260508203502 56 222 7.0 13.9 0.04 0.07 0.07 93 1011.3
20260508203001 57 204 7.8 13.0 0.04 0.06 0.06 91 1011.2
20260508202502 57 213 11.3 14.8 0.02 0.06 0.06 90 1011.3
20260508202001 57 206 7.0 15.6 0.00 0.05 0.05 88 1011.4
20260508201502 57 216 8.7 13.9 0.00 0.05 0.05 87 1011.1
20260508201002 57 207 10.4 13.0 0.00 0.05 0.05 85 1011.3
20260508200502 58 191 2.6 7.8 0.00 0.05 0.05 85 1011.5
20260508200002 58 152 7.0 7.0 0.00 0.05 0.05 85 1011.4
20260508195502 58 146 3.5 5.2 0.00 0.05 0.05 83 1011.3
20260508195001 58 143 1.7 4.3 0.02 0.05 0.05 83 1011.4
20260508194502 58 148 1.7 4.3 0.02 0.05 0.05 83 1011.5
20260508194001 58 12 2.6 3.5 0.00 0.05 0.05 84 1011.4
20260508193502 57 17 3.5 4.3 0.00 0.05 0.05 83 1011.5
20260508193002 58 35 2.6 4.3 0.00 0.05 0.05 81 1011.3
20260508192501 58 46 3.5 6.1 0.00 0.05 0.05 83 1011.4
20260508192002 58 62 1.7 2.6 0.00 0.05 0.05 79 1011.4
20260508191501 58 74 3.5 3.5 0.00 0.05 0.05 81 1011.5
20260508191002 58 68 1.7 3.5 0.00 0.05 0.05 81 1011.5
20260508190501 58 13 2.6 2.6 0.00 0.05 0.05 82 1011.8
20260508190002 57 35 1.7 5.2 0.00 0.05 0.05 83 1011.8
20260508185502 58 53 2.6 4.3 0.00 0.05 0.05 83 1011.9
20260508185002 58 39 2.6 4.3 0.00 0.05 0.05 82 1012.1
20260508184502 58 54 2.6 5.2 0.00 0.05 0.05 82 1012.0
20260508184001 58 28 3.5 4.3 0.00 0.05 0.05 84 1012.1
20260508183502 57 29 0.0 1.7 0.00 0.05 0.05 80 1012.2
20260508183002 57 25 1.7 2.6 0.00 0.05 0.05 81 1012.5
20260508182502 57 13 1.7 1.7 0.00 0.05 0.05 83 1012.3
20260508182002 57 4 0.0 1.7 0.00 0.05 0.05 83 1012.4
20260508181501 57 246 0.0 2.6 0.00 0.05 0.05 83 1012.3
20260508181002 57 252 1.7 2.6 0.00 0.05 0.05 81 1012.3
20260508180501 56 157 0.0 2.6 0.00 0.05 0.05 79 1012.5
20260508180002 56 203 1.7 4.3 0.00 0.05 0.05 81 1012.6
20260508175501 56 222 3.5 4.3 0.00 0.05 0.05 81 1012.7
20260508175002 56 243 3.5 6.1 0.00 0.05 0.05 80 1013.1
20260508174502 56 209 2.6 4.3 0.00 0.05 0.05 83 1012.9
20260508174001 56 210 3.5 5.2 0.00 0.05 0.05 82 1013.2
20260508173501 56 242 5.2 7.0 0.00 0.05 0.05 81 1013.4
20260508173002 56 228 4.3 6.1 0.00 0.05 0.05 83 1013.5
20260508172502 55 229 7.0 8.7 0.00 0.05 0.05 84 1013.4
20260508172001 55 240 9.6 9.6 0.00 0.05 0.05 84 1013.5
20260508171502 55 245 7.8 9.6 0.00 0.05 0.05 83 1013.6
20260508171002 56 240 6.1 10.4 0.00 0.05 0.05 81 1013.4
20260508170502 56 209 7.8 10.4 0.00 0.05 0.05 80 1013.3
20260508170002 56 210 9.6 10.4 0.00 0.05 0.05 79 1013.1
20260508165502 57 208 9.6 9.6 0.00 0.05 0.05 82 1013.1
20260508165002 57 214 9.6 11.3 0.00 0.05 0.05 82 1013.3
20260508164502 56 212 7.0 13.0 0.00 0.05 0.05 82 1013.4
20260508164001 56 216 6.1 13.0 0.00 0.05 0.05 84 1013.6
20260508163502 55 212 7.8 10.4 0.00 0.05 0.05 84 1013.8
20260508163002 55 209 7.8 9.6 0.00 0.05 0.05 87 1013.9
20260508162501 54 209 7.8 9.6 0.00 0.05 0.05 87 1014.1
20260508162002 52 215 9.6 10.4 0.00 0.05 0.05 88 1014.1
20260508161502 51 211 6.1 8.7 0.00 0.05 0.05 91 1014.3
20260508161002 51 228 9.6 9.6 0.00 0.05 0.05 92 1014.3
20260508160501 50 218 5.2 8.7 0.00 0.05 0.05 93 1014.3
20260508160002 50 227 7.8 11.3 0.00 0.05 0.05 94 1014.5
20260508155502 50 227 6.1 9.6 0.00 0.05 0.05 95 1014.5
20260508155002 50 220 5.2 7.8 0.02 0.05 0.05 96 1014.6
20260508154501 49 230 4.3 8.7 0.07 0.05 0.05 96 1014.6
20260508154002 49 223 7.0 8.7 0.11 0.05 0.05 96 1014.5
20260508153501 49 241 7.0 9.6 0.09 0.04 0.04 95 1014.6
20260508153001 49 248 7.8 13.0 0.04 0.03 0.03 95 1014.7
20260508152502 50 248 12.2 13.9 0.04 0.02 0.02 95 1014.7
20260508152001 50 239 9.6 17.4 0.04 0.02 0.02 95 1014.8
20260508151502 50 245 9.6 16.5 0.02 0.02 0.02 94 1014.8
20260508151002 50 247 11.3 19.1 0.02 0.01 0.01 94 1014.7
20260508150502 50 233 8.7 16.5 0.02 0.01 0.01 95 1014.7
20260508150003 50 245 8.7 14.8 0.07 0.01 0.01 94 1014.8
20260508145501 50 242 13.0 16.5 0.04 0.00 0.00 92 1014.7
20260508145002 51 249 10.4 16.5 0.00 0.00 0.00 90 1014.7
20260508144502 51 240 7.8 14.8 0.00 0.00 0.00 89 1014.7
20260508144002 50 222 13.0 13.0 0.00 0.00 0.00 90 1014.4
20260508143002 51 234 5.2 9.6 0.00 0.00 0.00 88 1014.4
20260508142501 51 242 7.0 10.4 0.00 0.00 0.00 88 1014.4
20260508142001 51 250 7.8 11.3 0.00 0.00 0.00 86 1014.4
20260508141502 51 249 9.6 10.4 0.00 0.00 0.00 86 1014.3
20260508141002 51 251 7.0 9.6 0.00 0.00 0.00 86 1014.6
20260508140501 52 249 7.0 10.4 0.00 0.00 0.00 85 1014.4
20260508140002 52 244 8.7 9.6 0.00 0.00 0.00 84 1014.4
20260508135501 52 240 5.2 9.6 0.00 0.00 0.00 84 1014.3
20260508135002 52 236 4.3 8.7 0.00 0.00 0.00 85 1014.3
20260508134502 52 241 9.6 9.6 0.00 0.00 0.00 84 1014.3
20260508134002 52 243 11.3 11.3 0.00 0.00 0.00 83 1014.6
20260508133502 52 250 11.3 12.2 0.00 0.00 0.00 83 1014.3
20260508133001 52 247 8.7 10.4 0.00 0.00 0.00 83 1014.4
20260508132501 52 229 10.4 12.2 0.00 0.00 0.00 82 1014.5
20260508132002 52 239 6.1 12.2 0.00 0.00 0.00 83 1014.2
20260508131502 51 234 8.7 11.3 0.00 0.00 0.00 83 1014.5
20260508131002 51 238 7.0 11.3 0.00 0.00 0.00 83 1014.4
20260508130501 51 228 6.1 11.3 0.00 0.00 0.00 85 1014.5
20260508130002 51 212 6.1 13.0 0.00 0.00 0.00 84 1014.6
20260508125501 51 217 7.8 10.4 0.00 0.00 0.00 85 1014.5
20260508125002 51 237 7.8 9.6 0.00 0.00 0.00 85 1014.3
20260508124502 51 222 6.1 10.4 0.00 0.00 0.00 86 1014.4
20260508124001 51 223 8.7 13.0 0.00 0.00 0.00 84 1014.1
20260508123502 51 237 8.7 12.2 0.00 0.00 0.00 84 1014.3
20260508123002 50 226 9.6 10.4 0.00 0.00 0.00 83 1014.2
20260508122502 50 230 7.8 11.3 0.00 0.00 0.00 83 1014.2
20260508122001 50 240 7.0 12.2 0.00 0.00 0.00 84 1014.4
20260508121501 50 236 13.0 13.0 0.00 0.00 0.00 83 1014.2
20260508121002 50 232 6.1 12.2 0.00 0.00 0.00 85 1014.3
20260508120502 50 235 7.8 11.3 0.00 0.00 0.00 85 1014.4
20260508120003 50 228 6.1 13.9 0.00 0.00 0.00 85 1014.2
20260508115501 49 237 7.8 13.0 0.00 0.00 0.00 86 1014.1
20260508115002 49 239 10.4 12.2 0.00 0.00 0.00 85 1014.2
20260508114501 49 248 4.3 11.3 0.00 0.00 0.00 86 1014.1
20260508114001 49 242 6.1 11.3 0.00 0.00 0.00 85 1013.9
20260508113502 49 229 8.7 13.0 0.00 0.00 0.00 85 1013.8
20260508113001 48 238 8.7 13.0 0.00 0.00 0.00 85 1013.9
20260508112501 48 247 7.8 10.4 0.00 0.00 0.00 86 1013.8
20260508112002 48 245 9.6 13.0 0.00 0.00 0.00 85 1014.1
20260508111502 47 237 7.0 9.6 0.00 0.00 0.00 87 1013.7
20260508111002 47 234 5.2 9.6 0.00 0.00 0.00 88 1013.8
20260508110502 47 233 7.8 10.4 0.00 0.00 0.00 88 1013.6
20260508110003 47 228 6.1 9.6 0.00 0.00 0.00 87 1013.6
20260508105501 47 227 9.6 13.0 0.00 0.00 0.00 86 1013.5
20260508105002 47 231 9.6 13.0 0.00 0.00 0.00 86 1013.6
20260508104502 47 232 10.4 12.2 0.00 0.00 0.00 85 1013.5
20260508104001 46 246 8.7 12.2 0.00 0.00 0.00 87 1013.6
20260508103502 46 217 5.2 10.4 0.00 0.00 0.00 88 1013.7
20260508103002 46 230 7.8 11.3 0.00 0.00 0.00 88 1013.5
20260508102502 46 220 6.1 9.6 0.00 0.00 0.00 88 1013.4
20260508102001 46 237 6.1 8.7 0.00 0.00 0.00 87 1013.4
20260508101502 46 229 8.7 11.3 0.00 0.00 0.00 87 1013.5
20260508101002 46 244 6.1 10.4 0.00 0.00 0.00 86 1013.4
20260508100502 46 246 7.0 9.6 0.00 0.00 0.00 87 1013.4
20260508100002 46 235 6.1 11.3 0.00 0.00 0.00 86 1013.5
20260508095002 46 244 6.1 12.2 0.00 0.00 0.00 85 1013.5
20260508094502 46 244 7.8 11.3 0.00 0.00 0.00 85 1013.6
20260508094001 47 241 7.8 13.0 0.00 0.00 0.00 85 1013.8
20260508093502 47 235 11.3 14.8 0.00 0.00 0.00 85 1013.4
20260508093002 47 234 9.6 13.9 0.00 0.00 0.00 85 1013.5
20260508092501 46 223 8.7 9.6 0.00 0.00 0.00 86 1013.8
20260508092003 46 233 9.6 11.3 0.00 0.00 0.00 86 1013.6
20260508091502 46 217 7.0 13.0 0.00 0.00 0.00 86 1013.7
20260508091002 46 232 6.1 11.3 0.00 0.00 0.00 86 1013.9
20260508090501 46 243 6.1 11.3 0.00 0.00 0.00 86 1013.8
20260508090002 45 232 8.7 13.0 0.00 0.00 0.00 87 1013.7
20260508085501 45 229 7.0 11.3 0.00 0.00 0.00 86 1013.4
20260508085001 45 220 9.6 13.0 0.00 0.00 0.00 87 1013.7
20260508084502 45 235 10.4 12.2 0.00 0.00 0.00 87 1013.7
20260508084002 45 235 7.0 8.7 0.00 0.00 0.00 89 1013.7
20260508083501 44 234 4.3 7.8 0.00 0.00 0.00 89 1013.6
20260508083001 44 222 6.1 7.8 0.00 0.00 0.00 90 1013.6
20260508082502 45 223 7.8 8.7 0.00 0.00 0.00 88 1013.5
20260508082001 45 212 7.0 10.4 0.00 0.00 0.00 88 1013.6
20260508081502 45 220 9.6 10.4 0.00 0.00 0.00 88 1013.4
20260508081003 46 221 9.6 9.6 0.00 0.00 0.00 87 1013.8
20260508080501 45 213 6.1 10.4 0.00 0.00 0.00 89 1013.6
20260508080002 45 218 5.2 7.8 0.00 0.00 0.00 89 1013.6
20260508075501 46 220 5.2 7.0 0.00 0.00 0.00 88 1013.5
20260508075002 46 208 5.2 8.7 0.00 0.00 0.00 87 1013.7
20260508074501 47 206 5.2 7.8 0.00 0.00 0.00 87 1013.6
20260508074002 47 203 7.8 9.6 0.00 0.00 0.00 87 1013.7
20260508073502 47 209 7.0 10.4 0.00 0.00 0.00 87 1013.8
20260508073001 47 208 7.0 9.6 0.00 0.00 0.00 88 1013.9
20260508072502 47 210 4.3 8.7 0.00 0.00 0.00 88 1013.9
20260508072001 47 208 5.2 8.7 0.00 0.00 0.00 88 1013.8
20260508071502 46 166 2.6 8.7 0.00 0.00 0.00 90 1014.1
20260508071002 45 167 2.6 4.3 0.00 0.00 0.00 95 1013.9
20260508070502 44 147 4.3 7.0 0.00 0.00 0.00 97 1014.1
20260508070002 44 173 2.6 5.2 0.00 0.00 0.00 97 1014.0
20260508065502 44 143 2.6 5.2 0.00 0.00 0.00 97 1014.1
20260508065001 44 145 3.5 5.2 0.00 0.00 0.00 96 1013.9
20260508064501 44 145 4.3 5.2 0.00 0.00 0.00 96 1014.1
20260508064002 44 145 4.3 6.1 0.00 0.00 0.00 96 1014.3
20260508063502 44 148 5.2 6.1 0.00 0.00 0.00 96 1014.4
20260508063002 44 146 4.3 5.2 0.00 0.00 0.00 95 1014.3
20260508062501 44 147 5.2 5.2 0.00 0.00 0.00 95 1014.4
20260508062002 44 141 3.5 4.3 0.00 0.00 0.00 95 1014.4
20260508061501 45 144 4.3 5.2 0.00 0.00 0.00 94 1014.5
20260508061002 45 147 5.2 5.2 0.00 0.00 0.00 94 1014.5
20260508060502 45 145 4.3 5.2 0.00 0.00 0.00 94 1014.5
20260508060002 45 144 4.3 4.3 0.00 0.00 0.00 94 1014.6
20260508055501 45 145 4.3 6.1 0.00 0.00 0.00 94 1014.6
20260508055002 46 143 3.5 4.3 0.00 0.00 0.00 93 1014.7
20260508054502 46 146 5.2 5.2 0.00 0.00 0.00 93 1014.8
20260508054002 46 147 4.3 6.1 0.00 0.00 0.00 94 1014.5
20260508053501 45 146 4.3 7.0 0.00 0.00 0.00 95 1014.6
20260508053003 45 145 5.2 5.2 0.00 0.00 0.00 95 1014.8
20260508052502 45 153 3.5 5.2 0.00 0.00 0.00 95 1014.7
20260508052002 46 149 3.5 5.2 0.00 0.00 0.00 94 1014.8
20260508051502 46 143 3.5 4.3 0.00 0.00 0.00 93 1014.8
20260508051002 47 138 2.6 4.3 0.00 0.00 0.00 90 1014.8
20260508050501 48 156 2.6 5.2 0.00 0.00 0.00 88 1014.7
20260508050004 48 200 2.6 3.5 0.00 0.00 0.00 88 1014.9
20260508045501 48 196 1.7 5.2 0.00 0.00 0.00 89 1014.7
20260508045002 48 205 3.5 5.2 0.00 0.00 0.00 89 1014.7
20260508044502 48 204 5.2 6.1 0.00 0.00 0.00 90 1014.8
20260508044002 47 199 2.6 5.2 0.00 0.00 0.00 92 1014.9
20260508043501 48 149 3.5 4.3 0.00 0.00 0.00 92 1014.8
20260508043001 48 138 1.7 1.7 0.00 0.00 0.00 91 1015.1
20260508042502 48 44 0.0 2.6 0.00 0.00 0.00 89 1014.9
20260508042002 48 284 0.0 1.7 0.00 0.00 0.00 90 1014.9
20260508041502 48 2 1.7 4.3 0.00 0.00 0.00 90 1015.0
20260508041002 48 260 2.6 5.2 0.00 0.00 0.00 89 1015.0
20260508040502 48 264 3.5 6.1 0.00 0.00 0.00 88 1014.7
20260508040003 49 241 5.2 7.8 0.00 0.02 0.02 88 1015.0
20260508035501 49 266 9.6 9.6 0.00 0.02 0.02 87 1015.2
20260508035002 48 274 7.0 8.7 0.00 0.02 0.02 87 1015.3
20260508034501 49 265 8.7 13.9 0.00 0.02 0.02 86 1015.3
20260508034002 49 253 14.8 21.7 0.04 0.02 0.02 84 1015.3
20260508033502 49 255 7.0 12.2 0.09 0.02 0.02 87 1015.3
20260508033002 48 272 3.5 9.6 0.04 0.01 0.01 88 1015.2
20260508032502 49 254 2.6 4.3 0.00 0.00 0.00 87 1014.7
20260508032002 50 208 4.3 7.8 0.00 0.00 0.00 81 1014.5
20260508031502 49 204 6.1 7.8 0.04 0.00 0.00 81 1014.4
20260508031002 49 189 3.5 11.3 0.04 0.00 0.00 81 1014.5
20260508030501 50 205 7.8 10.4 0.00 0.00 0.00 80 1014.5
20260508030002 50 207 6.1 11.3 0.00 0.00 0.00 78 1014.5
20260508025502 50 208 3.5 5.2 0.00 0.00 0.00 78 1014.3
20260508025001 50 147 1.7 5.2 0.00 0.00 0.00 78 1014.3
20260508024502 50 151 2.6 5.2 0.00 0.00 0.00 78 1014.4
20260508024002 50 163 1.7 6.1 0.00 0.00 0.00 78 1014.5
20260508023502 50 180 5.2 8.7 0.00 0.00 0.00 77 1014.6
20260508023001 50 180 3.5 7.0 0.00 0.00 0.00 77 1014.4
20260508022502 50 200 5.2 8.7 0.00 0.00 0.00 74 1014.5
20260508022003 50 164 2.6 9.6 0.00 0.00 0.00 74 1014.4
20260508021502 50 161 1.7 11.3 0.00 0.00 0.00 74 1014.6
20260508021002 50 180 1.7 7.8 0.00 0.00 0.00 75 1014.5
20260508020501 50 158 1.7 6.1 0.00 0.00 0.00 76 1014.6
20260508020002 50 174 5.2 7.0 0.00 0.00 0.00 74 1014.5
20260508015502 50 200 3.5 5.2 0.00 0.00 0.00 73 1014.7
20260508015002 50 155 1.7 6.1 0.00 0.00 0.00 76 1014.6
20260508014502 50 156 3.5 5.2 0.00 0.00 0.00 75 1014.4
20260508014002 50 183 1.7 4.3 0.00 0.00 0.00 76 1014.6
20260508013502 49 149 3.5 3.5 0.00 0.00 0.00 79 1014.6
20260508013002 49 161 2.6 3.5 0.00 0.00 0.00 80 1014.5
20260508012502 50 142 3.5 4.3 0.00 0.00 0.00 79 1014.5
20260508012002 50 158 2.6 3.5 0.00 0.00 0.00 76 1014.5
20260508011502 50 149 2.6 5.2 0.00 0.00 0.00 78 1014.5
20260508011001 51 198 1.7 5.2 0.00 0.00 0.00 72 1014.5
20260508010502 51 202 2.6 5.2 0.00 0.00 0.00 72 1014.7
20260508010002 51 200 2.6 5.2 0.00 0.00 0.00 72 1014.5
20260508005502 51 201 4.3 5.2 0.00 0.00 0.00 75 1014.5
20260508005002 51 241 1.7 2.6 0.00 0.00 0.00 74 1014.5
20260508004502 51 201 2.6 4.3 0.00 0.00 0.00 70 1014.5
20260508004001 51 199 3.5 4.3 0.00 0.00 0.00 72 1014.6
20260508003502 51 197 1.7 2.6 0.00 0.00 0.00 73 1014.6
20260508003002 51 196 1.7 2.6 0.00 0.00 0.00 74 1014.5
20260508002502 51 236 3.5 4.3 0.00 0.00 0.00 73 1014.5
20260508002001 51 239 2.6 4.3 0.00 0.00 0.00 73 1014.5
20260508001501 52 256 2.6 4.3 0.00 0.00 0.00 71 1014.4
20260508001002 52 224 3.5 5.2 0.00 0.00 0.00 71 1014.5
20260508000502 51 209 2.6 3.5 0.00 0.00 0.00 71 1014.6
20260508000003 52 258 2.6 3.5 0.00 0.00 0.00 70 1014.4
20260507235502 52 259 2.6 4.3 0.00 0.00 0.00 68 1014.3
20260507235002 52 240 3.5 6.1 0.00 0.00 0.00 66 1014.4
20260507234502 52 266 5.2 7.0 0.00 0.00 0.00 62 1014.6
20260507234001 53 244 5.2 8.7 0.00 0.00 0.00 61 1014.5
20260507233502 53 268 4.3 9.6 0.00 0.00 0.00 61 1014.4
20260507233002 53 258 7.8 10.4 0.00 0.00 0.00 60 1014.6
20260507232502 52 272 7.8 9.6 0.00 0.00 0.00 64 1014.7
20260507232002 53 275 7.0 12.2 0.00 0.00 0.00 64 1014.9
20260507231501 53 261 11.3 14.8 0.00 0.00 0.00 63 1014.9
20260507231002 52 288 11.3 20.0 0.00 0.00 0.00 61 1015.1
20260507230502 53 277 10.4 19.1 0.00 0.00 0.00 60 1015.2
20260507230002 53 271 13.0 13.9 0.00 0.00 0.00 61 1015.2
20260507225502 53 275 9.6 14.8 0.00 0.00 0.00 60 1015.0
20260507225002 53 282 14.8 19.1 0.00 0.00 0.00 58 1015.1
20260507224502 54 260 13.9 20.9 0.00 0.00 0.00 58 1015.0
20260507224002 54 268 9.6 16.5 0.00 0.00 0.00 56 1015.1
20260507223502 54 281 10.4 19.1 0.00 0.00 0.00 57 1015.0
20260507223002 54 267 18.2 24.3 0.00 0.00 0.00 54 1015.0
20260507222501 55 280 7.8 17.4 0.00 0.00 0.00 55 1015.0
20260507222002 55 292 10.4 17.4 0.00 0.00 0.00 51 1015.0
20260507221501 55 312 5.2 10.4 0.00 0.00 0.00 51 1014.9
20260507221002 55 327 7.0 16.5 0.00 0.00 0.00 48 1014.9